Stations météo

réclame
Mon MeteoGroup
Kleine Brogel, Belgique (6479): Température de l'air & dewpoint: 10.08.2018 10:00:00 - 16.08.2018 10:00:00 (CEST)Kleine Brogel, Belgique (6479): Vitesse du vent & gusts: 10.08.2018 10:00:00 - 16.08.2018 10:00:00 (CEST)Kleine Brogel, Belgique (6479): Direction du vent: 10.08.2018 10:00:00 - 16.08.2018 10:00:00 (CEST)Kleine Brogel, Belgique (6479): reduced air pressure: 10.08.2018 10:00:00 - 16.08.2018 10:00:00 (CEST)Kleine Brogel, Belgique (6479): visibility: 10.08.2018 10:00:00 - 16.08.2018 10:00:00 (CEST)
Date & Time tt [°C] td [°C] ff [km/h] ff [knt] fx [km/h] fx [knt] dd ppp [hPa] vv [km]
16.08.2018 10:00:00 - - - - - - - - -
16.08.2018 09:00:00 17,2 14,4 4 2 11 6 N 1017,3 20
16.08.2018 08:00:00 16,5 14,1 7 4 - - S 1017,7 20
16.08.2018 07:00:00 15,6 13,6 4 2 11 6 N 1017,8 20
16.08.2018 06:00:00 14,7 13,3 4 2 11 6 N 1017,7 20
16.08.2018 05:00:00 13,4 12,4 4 2 - - N 1018,1 12
16.08.2018 04:00:00 13,7 12,6 4 2 7 4 N 1018,3 14
16.08.2018 03:00:00 14,6 13,1 4 2 7 4 N 1018,7 16
16.08.2018 02:00:00 15,1 13,3 4 2 - - N 1018,8 19
16.08.2018 01:00:00 16,7 13,8 4 2 7 4 N 1019,0 19
16.08.2018 00:00:00 17,1 14,5 4 2 7 4 N 1019,2 20
15.08.2018 23:00:00 17,2 15,2 4 2 - - N 1019,2 17
15.08.2018 22:00:00 17,4 15,3 4 2 7 4 N 1019,3 20
15.08.2018 21:00:00 19,2 15,3 4 2 22 12 N 1019,2 20
15.08.2018 20:00:00 20,8 15,3 14 8 - - SW 1019,2 20
15.08.2018 19:00:00 21,5 15,3 14 8 25 14 WSW 1019,3 20
15.08.2018 18:00:00 21,1 15,2 18 10 29 16 SW 1019,7 20
15.08.2018 17:00:00 21,8 15,3 18 10 - - WSW 1019,7 20
15.08.2018 16:00:00 22,3 15,7 18 10 32 18 WSW 1019,7 20
15.08.2018 15:00:00 22,6 15,3 14 8 25 14 WSW 1019,7 20
15.08.2018 14:00:00 22,8 16,6 14 8 - - SW 1020,0 20
15.08.2018 13:00:00 20,8 16,1 11 6 22 12 SW 1020,2 20
15.08.2018 12:00:00 19,9 15,8 14 8 22 12 SW 1020,2 20
15.08.2018 11:00:00 19,2 15,9 14 8 - - SW 1020,2 19
15.08.2018 10:00:00 18,2 15,6 14 8 22 12 SW 1019,8 18
15.08.2018 09:00:00 17,5 15,2 11 6 18 10 SW 1019,7 19
15.08.2018 08:00:00 16,4 14,4 11 6 - - SW 1019,2 20
15.08.2018 07:00:00 15,9 13,9 11 6 14 8 SW 1018,8 19
15.08.2018 06:00:00 15,8 13,7 7 4 14 8 SSW 1018,6 20
15.08.2018 05:00:00 15,6 13,5 7 4 - - SSW 1018,7 20
15.08.2018 04:00:00 15,8 13,2 7 4 11 6 SSW 1019,0 20
15.08.2018 03:00:00 16,5 13,3 7 4 14 8 SW 1019,1 20
15.08.2018 02:00:00 18,0 13,4 11 6 - - WSW 1019,2 20
15.08.2018 01:00:00 17,8 13,0 4 2 11 6 N 1019,2 20
15.08.2018 00:00:00 17,7 12,9 4 2 4 2 N 1018,8 20
14.08.2018 23:00:00 17,1 13,5 4 2 - - N 1018,7 20
14.08.2018 22:00:00 17,0 13,5 4 2 14 8 N 1018,7 20
14.08.2018 21:00:00 18,8 12,9 7 4 14 8 W 1018,2 20
14.08.2018 20:00:00 19,7 13,4 7 4 - - W 1017,6 20
14.08.2018 19:00:00 21,1 15,3 11 6 22 12 W 1017,2 20
14.08.2018 18:00:00 19,7 17,4 4 2 18 10 N 1017,1 20
14.08.2018 17:00:00 20,7 17,3 11 6 - - W 1016,7 20
14.08.2018 16:00:00 18,5 16,9 18 10 25 14 W 1016,7 20
14.08.2018 15:00:00 23,1 16,4 18 10 32 18 SW 1016,0 20
14.08.2018 14:00:00 22,6 15,2 18 10 - - W 1015,6 18
14.08.2018 13:00:00 22,0 15,2 14 8 29 16 WNW 1015,2 18
14.08.2018 12:00:00 20,7 15,5 11 6 29 16 WNW 1015,0 18
14.08.2018 11:00:00 20,6 15,6 11 6 - - WNW 1014,7 18
14.08.2018 10:00:00 18,7 16,3 11 6 22 12 W 1014,3 15
14.08.2018 09:00:00 17,7 16,7 11 6 18 10 WSW 1013,7 4,5
14.08.2018 08:00:00 17,2 16,0 11 6 - - WSW 1012,8 6
14.08.2018 07:00:00 16,6 15,6 14 8 22 12 WSW 1012,2 5
14.08.2018 06:00:00 16,0 14,9 15 8 25 14 SW 1011,7 10
14.08.2018 05:00:00 16,2 14,9 14 8 - - SW 1011,3 16
14.08.2018 04:00:00 16,6 15,2 14 8 25 14 SW 1011,1 11
14.08.2018 03:00:00 16,7 15,4 18 10 29 16 SW 1010,7 15
14.08.2018 02:00:00 16,5 15,8 15 8 - - SW 1010,7 10
14.08.2018 01:00:00 16,5 15,8 11 6 14 8 SW 1010,2 16
14.08.2018 00:00:00 16,1 15,5 7 4 11 6 SSW 1009,8 18
13.08.2018 23:00:00 16,8 16,4 4 2 - - N 1009,3 20
13.08.2018 22:00:00 17,2 16,3 11 6 14 8 SW 1009,1 10
13.08.2018 21:00:00 17,7 15,9 7 4 22 12 SW 1008,7 20
13.08.2018 20:00:00 19,0 15,1 14 8 - - SW 1008,1 20
13.08.2018 19:00:00 19,3 14,8 18 10 29 16 SW 1007,7 20
13.08.2018 18:00:00 20,0 15,6 18 10 32 18 SW 1007,7 20
13.08.2018 17:00:00 21,6 15,4 22 12 - - WSW 1007,1 20
13.08.2018 16:00:00 20,6 15,5 22 12 32 18 SW 1007,2 20
13.08.2018 15:00:00 19,5 16,2 14 8 43 23 WSW 1006,8 15
13.08.2018 14:00:00 19,3 15,6 29 16 - - WSW 1006,7 4,0
13.08.2018 13:00:00 19,2 17,3 14 8 29 16 SSW 1006,7 20
13.08.2018 12:00:00 19,8 16,9 14 8 29 16 SSW 1006,7 20
13.08.2018 11:00:00 19,5 17,5 14 8 - - SSW 1007,1 18
13.08.2018 10:00:00 18,1 16,9 11 6 18 10 SSW 1007,2 10
13.08.2018 09:00:00 17,2 16,8 7 4 14 8 SW 1007,1 10
13.08.2018 08:00:00 16,2 15,9 4 2 - - N 1006,6 15
13.08.2018 07:00:00 16,0 15,7 4 2 18 10 N 1006,6 12
13.08.2018 06:00:00 16,7 14,8 11 6 22 12 SSW 1007,6 10
13.08.2018 05:00:00 16,6 15,1 7 4 - - SSE 1007,1 18
13.08.2018 04:00:00 19,2 11,3 4 2 22 12 - 1007,1 4,5
13.08.2018 03:00:00 19,8 10,7 4 2 4 2 N 1007,2 20
13.08.2018 02:00:00 20,1 10,1 4 2 - - N 1007,7 20
13.08.2018 01:00:00 20,2 9,9 4 2 7 4 N 1008,5 20
13.08.2018 00:00:00 19,2 10,5 4 2 7 4 N 1009,1 20
12.08.2018 23:00:00 19,8 10,0 4 2 - - N 1009,5 20
12.08.2018 22:00:00 21,5 9,5 4 2 7 4 N 1010,1 20
12.08.2018 21:00:00 23,1 9,4 4 2 7 4 N 1010,2 20
12.08.2018 20:00:00 25,8 7,9 4 2 - - N 1010,2 20
12.08.2018 19:00:00 27,0 7,2 11 6 18 10 SSW 1010,7 20
12.08.2018 18:00:00 27,7 8,0 11 6 25 14 S 1011,3 20
12.08.2018 17:00:00 28,0 7,8 14 8 - - SW 1012,1 20
12.08.2018 16:00:00 27,3 8,7 11 6 25 14 S 1012,8 20
12.08.2018 15:00:00 27,7 8,9 11 6 29 16 S 1013,8 20
12.08.2018 14:00:00 26,4 8,5 11 6 - - S 1014,7 20
12.08.2018 13:00:00 25,6 8,5 11 6 29 16 SSW 1015,3 20
12.08.2018 12:00:00 25,2 8,4 14 8 25 14 S 1016,1 20
12.08.2018 11:00:00 23,3 9,0 11 6 - - S 1016,5 20
12.08.2018 10:00:00 21,3 8,8 11 6 18 10 SSW 1017,1 20
12.08.2018 09:00:00 18,1 8,8 7 4 14 8 S 1017,6 20
12.08.2018 08:00:00 16,1 9,4 4 2 - - N 1017,7 20
12.08.2018 07:00:00 12,6 8,7 4 2 11 6 N 1018,2 20
12.08.2018 06:00:00 13,1 9,0 4 2 11 6 N 1018,2 20
12.08.2018 05:00:00 12,8 8,6 4 2 - - N 1019,0 20
12.08.2018 04:00:00 13,2 8,6 4 2 11 6 N 1019,7 20
12.08.2018 03:00:00 13,6 9,0 4 2 7 4 N 1020,2 20
12.08.2018 02:00:00 14,1 9,2 2 1 - - - 1020,8 10
12.08.2018 01:00:00 13,1 9,7 4 2 7 4 N 1021,3 20
12.08.2018 00:00:00 12,4 9,2 4 2 0 0 N 1022,0 20
11.08.2018 23:00:00 13,5 8,8 4 2 - - N 1022,1 20
11.08.2018 22:00:00 15,1 8,9 0 0 7 4 N 1022,3 20
11.08.2018 21:00:00 17,3 9,0 4 2 14 8 N 1022,2 20
11.08.2018 20:00:00 20,5 6,3 7 4 - - W 1022,2 20
11.08.2018 19:00:00 21,1 6,7 7 4 22 12 WNW 1022,5 20
11.08.2018 18:00:00 21,5 6,5 7 4 29 16 W 1022,7 20
11.08.2018 17:00:00 21,9 7,2 14 8 - - WSW 1022,8 20
11.08.2018 16:00:00 21,2 7,8 18 10 29 16 WSW 1023,2 20
11.08.2018 15:00:00 22,1 7,9 14 8 32 18 W 1023,2 20
11.08.2018 14:00:00 21,3 8,0 18 10 - - W 1023,7 19
11.08.2018 13:00:00 21,5 8,5 18 10 32 18 WSW 1023,6 20
11.08.2018 12:00:00 18,5 8,7 14 8 32 18 W 1024,0 20
11.08.2018 11:00:00 17,4 10,1 14 8 - - W 1023,7 20
11.08.2018 10:00:00 17,1 11,8 18 10 25 14 WSW 1023,8 20
11.08.2018 09:00:00 15,3 13,1 14 8 22 12 WSW 1023,3 20
11.08.2018 08:00:00 13,6 12,8 11 6 - - WSW 1022,8 11
11.08.2018 07:00:00 12,5 12,0 11 6 14 8 WSW 1022,3 8
11.08.2018 06:00:00 12,5 12,1 11 6 18 10 WSW 1021,7 9
11.08.2018 05:00:00 12,6 12,1 11 6 - - SW 1021,2 20
11.08.2018 04:00:00 12,8 12,4 7 4 14 8 SW 1021,2 18
11.08.2018 03:00:00 13,0 12,3 11 6 43 23 SW 1021,2 20
11.08.2018 02:00:00 13,3 12,5 25 14 - - WSW 1021,3 11
11.08.2018 01:00:00 16,1 12,4 14 8 25 14 W 1020,8 17
11.08.2018 00:00:00 19,1 7,4 14 8 22 12 SW 1020,0 20
10.08.2018 23:00:00 19,7 6,9 14 8 - - SSW 1020,1 20
10.08.2018 22:00:00 20,1 6,6 14 8 29 16 SW 1020,2 20
10.08.2018 21:00:00 20,7 5,8 18 10 32 18 SSW 1020,1 20
10.08.2018 20:00:00 21,3 6,4 18 10 - - SSW 1020,1 20
10.08.2018 19:00:00 21,6 6,5 22 12 43 23 SSW 1020,3 20
10.08.2018 18:00:00 22,5 6,4 25 14 47 25 SW 1020,7 20
10.08.2018 17:00:00 23,4 7,4 22 12 - - SW 1021,1 20
10.08.2018 16:00:00 21,1 7,8 22 12 43 23 SSW 1021,7 20
10.08.2018 15:00:00 21,5 7,6 22 12 47 25 SW 1021,8 20
10.08.2018 14:00:00 21,3 7,5 32 18 - - WSW 1022,0 20
10.08.2018 13:00:00 20,6 8,4 25 14 43 23 SW 1022,2 20
10.08.2018 12:00:00 19,3 8,6 25 14 47 25 SW 1022,3 20
10.08.2018 11:00:00 17,8 9,5 22 12 - - WSW 1022,2 20
10.08.2018 10:00:00 18,0 11,7 22 12 36 19 SW 1022,1 20

tt = Température de l'air
td = dewpoint
ff = Vitesse du vent
fx = gusts
dd = Direction du vent
ppp = reduced air pressure
vv = visibility

stations d'obs. à proximité